Tracking 30260 objects as of 15-Feb-2025
HD Live streaming from Space Station
objects crossing your sky now

SL-14 R/B

Track SL-14 R/B now!
10-day predictions
SL-14 R/B is classified as:


NORAD ID: 14820
Int'l Code: 1984-027B
Perigee: 606.6 km
Apogee: 632.2 km
Inclination: 82.5 °
Period: 96.9 minutes
Semi major axis: 6990 km
RCS: 3.863 m2 (large)
Launch date: March 15, 1984
Source: Commonwealth of Independent States (former USSR) (CIS)
Launch site: PLESETSK MISSILE AND SPACE COMPLEX (PKMTR)

Note: This is a ROCKET BODY
Your satellite tracking list
Your tracking list is empty




NASA's NSSDC Master Catalog

Two Line Element Set (TLE):
1 14820U 84027B   25045.83137559  .00000837  00000-0  94135-4 0  9997
2 14820  82.5386 248.5938 0018250 173.2334 186.9132 14.85421554190040
Source of the keplerian elements: AFSPC